Location: Saint-Palais-sur-Mer
(45.6429°N, 1.0859°W)
Time: 00:42:12
(UTC+01:00)

Tiros 1 despin weight - Pass Details

Date: 12 February 2026
Orbit: 556 x 593 km, 48.2° (Epoch: 13 March)

Event Time Altitude Azimuth Distance (km) Brightness Sun altitude
Rises 21:11:54 0° 278° (W) 2,733 ? -29.3°
Reaches altitude 10° 21:14:10 10° 282° (WNW) 1,839 ? -29.7°
Enters shadow 21:16:26 30° 294° (WNW) 1,012 ? -30.1°
Maximum altitude 21:18:19 61° 3° (N) 639 - -30.4°
Drops below altitude 10° 21:22:30 10° 84° (E) 1,852 - -31.1°
Sets 21:24:48 0° 88° (E) 2,754 - -31.5°
